Eugene, OR

12:14 PM PST on November 15, 2019 (GMT -0800)
Mahlon Sweet

Weather History for KEUG - August, 2019

Change the Weather History Date:

Thursday, August 22, 2019

  Actual Average Record
Temperature  
Mean Temperature 67 °F 66 °F  
Max Temperature 77 °F 82 °F 96 °F (1942)
Min Temperature 57 °F 51 °F 38 °F (1955)
Degree Days  
Heating Degree Days 0 1  
Month to date heating degree days 2 22  
Since 1 June heating degree days 87 215  
Since 1 July heating degree days 12 58  
Cooling Degree Days 2 2  
Month to date cooling degree days 97 74  
Year to date cooling degree days 247 191  
Since 1 June cooling degree days 246 186  
Growing Degree Days 17 (Base 50)    
Moisture  
Dew Point 54 °F    
Average Humidity 65    
Maximum Humidity 93    
Minimum Humidity 36    
Precipitation  
Precipitation 0.00 in 0.02 in 0.40 in (1937)
Month to date precipitation 0.47 0.35  
Year to date precipitation 23.12 25.75  
Sea Level Pressure  
Sea Level Pressure 30.05 in    
Wind  
Wind Speed 10 mph (North)    
Max Wind Speed 16 mph    
Max Gust Speed 20 mph    
Visibility 10 miles    
Events      
T = Trace of Precipitation, MM = Missing Value Source: NWS Daily Summary

Daily Weather History Graph

Daily Weather History Graph

Search for Another Location

Airport or City:

Astronomy

Aug. 22, 2019 Rise Set
Actual Time 6:24 AM PDT 8:06 PM PDT
Civil Twilight 5:53 AM PDT 8:36 PM PDT
Nautical Twilight 5:16 AM PDT 9:14 PM PDT
Astronomical Twilight 4:36 AM PDT 9:54 PM PDT
Moon 11:44 PM PDT (8/22) 1:19 PM PDT (8/22)
Length of Visible Light 14h 43m
Length of Day
13h 41m
Waning Gibbous, 58% of the Moon is Illuminated
Aug 22
Waning Gibbous
Aug 23
Last Quarter
Aug 30
New
Sep 5
First Quarter
Sep 13
Full

Hourly Weather History & Observations

Time (PDT) Temp. Dew Point Humidity Pressure Visibility Wind Dir Wind Speed Gust Speed Precip Events Conditions
12:54 AM 64.0 °F 61.0 °F 90% 30.03 in 10.0 mi Calm Calm - N/A   Overcast
1:34 AM 64.0 °F 61.0 °F 90% 30.03 in 10.0 mi North 4.6 mph - N/A   Overcast
1:46 AM 64.0 °F 61.0 °F 90% 30.03 in 10.0 mi Calm Calm - N/A   Overcast
1:54 AM 63.0 °F 61.0 °F 93% 30.03 in 10.0 mi Calm Calm - N/A   Overcast
2:37 AM 63.0 °F 61.0 °F 93% 30.03 in 10.0 mi NNE 4.6 mph - N/A   Overcast
2:54 AM 63.0 °F 60.1 °F 90% 30.04 in 10.0 mi NE 5.8 mph - N/A   Overcast
3:54 AM 62.1 °F 59.0 °F 90% 30.05 in 10.0 mi North 9.2 mph - N/A   Overcast
4:04 AM 61.0 °F 55.0 °F 81% 30.05 in 10.0 mi North 11.5 mph - N/A   Overcast
4:43 AM 60.1 °F 55.0 °F 83% 30.06 in 10.0 mi NNE 13.8 mph - N/A   Overcast
4:54 AM 57.9 °F 55.0 °F 90% 30.06 in 10.0 mi NNE 13.8 mph - N/A   Overcast
5:05 AM 57.9 °F 55.0 °F 90% 30.06 in 10.0 mi NNE 15.0 mph - N/A   Overcast
5:29 AM 57.9 °F 54.0 °F 87% 30.06 in 10.0 mi North 12.7 mph - N/A   Overcast
5:54 AM 57.9 °F 54.0 °F 87% 30.07 in 10.0 mi North 11.5 mph - N/A   Mostly Cloudy
6:14 AM 57.9 °F 54.0 °F 87% 30.07 in 10.0 mi NNW 9.2 mph - N/A   Overcast
6:54 AM 57.9 °F 54.0 °F 87% 30.08 in 10.0 mi NNW 9.2 mph - N/A   Overcast
7:54 AM 59.0 °F 53.1 °F 81% 30.09 in 10.0 mi North 12.7 mph - N/A   Overcast
8:07 AM 59.0 °F 52.0 °F 78% 30.09 in 10.0 mi North 12.7 mph - N/A   Overcast
8:54 AM 60.1 °F 53.1 °F 78% 30.10 in 10.0 mi North 12.7 mph - N/A   Overcast
9:54 AM 61.0 °F 53.1 °F 75% 30.10 in 10.0 mi North 15.0 mph - N/A   Overcast
10:54 AM 64.0 °F 53.1 °F 67% 30.10 in 10.0 mi North 12.7 mph - N/A   Overcast
11:54 AM 66.9 °F 53.1 °F 61% 30.09 in 10.0 mi North 9.2 mph - N/A   Mostly Cloudy
12:54 PM 68.0 °F 53.1 °F 59% 30.08 in 10.0 mi NNW 6.9 mph - N/A   Mostly Cloudy
1:16 PM 71.1 °F 53.1 °F 53% 30.08 in 10.0 mi NE 9.2 mph - N/A   Scattered Clouds
1:54 PM 72.0 °F 53.1 °F 51% 30.07 in 10.0 mi North 11.5 mph - N/A   Scattered Clouds
2:54 PM 73.9 °F 51.1 °F 45% 30.05 in 10.0 mi North 6.9 mph - N/A   Scattered Clouds
3:54 PM 75.0 °F 50.0 °F 41% 30.03 in 10.0 mi North 10.4 mph - N/A   Scattered Clouds
4:54 PM 77.0 °F 48.9 °F 37% 30.01 in 10.0 mi NNW 12.7 mph - N/A   Scattered Clouds
5:54 PM 75.9 °F 48.9 °F 38% 30.00 in 10.0 mi North 11.5 mph - N/A   Scattered Clouds
6:54 PM 75.0 °F 48.0 °F 38% 29.99 in 10.0 mi North 11.5 mph - N/A   Partly Cloudy
7:54 PM 70.0 °F 48.0 °F 46% 29.99 in 10.0 mi North 12.7 mph - N/A   Partly Cloudy
8:54 PM 64.0 °F 50.0 °F 60% 29.99 in 10.0 mi NNE 8.1 mph - N/A   Partly Cloudy
9:54 PM 62.1 °F 48.9 °F 62% 29.99 in 10.0 mi North 6.9 mph - N/A   Clear
10:54 PM 60.1 °F 50.0 °F 69% 29.99 in 10.0 mi NW 4.6 mph - N/A   Clear
11:54 PM 59.0 °F 51.1 °F 75% 29.98 in 10.0 mi North 9.2 mph - N/A   Clear